Regional Weather Roundup
Issued by NWS

Home | Current Version | Previous Version | Graphics & Text | Print | Product List | Glossary On
Versions: 1 2 3 4 5 6 7 8 9 10 11 12 13 14 15 16 17 18 19 20 21 22 23 24 25 26 27 28 29 30 31 32 33 34 35 36 37 38 39 40 41 42 43 44 45 46 47 48 49 50
000
ASUS43 KBIS 221610
RWRND

NORTH DAKOTA REGIONAL WEATHER ROUNDUP
NATIONAL WEATHER SERVICE BISMARCK ND
1100 AM CDT MON SEP 22 2014

NOTE: "FAIR" INDICATES FEW OR NO CLOUDS BELOW 12,000 FEET WITH NO
SIGNIFICANT WEATHER AND/OR OBSTRUCTIONS TO VISIBILITY.


NDZ001>003-009>011-017-221700-
NORTHWEST NORTH DAKOTA

CITY           SKY/WX    TMP DP  RH WIND       PRES   REMARKS
WILLISTON      SUNNY     64  41  42 SE7       30.01F
MINOT          SUNNY     70  43  37 S12       30.06F
MINOT AFB      SUNNY     69  45  42 S13       30.05F
$$

NDZ018>021-031>035-040>046-221700-
SOUTHWEST NORTH DAKOTA

CITY           SKY/WX    TMP DP  RH WIND       PRES   REMARKS
BISMARCK       SUNNY     67  48  50 SE13      30.10F
DICKINSON      SUNNY     63  44  50 S13       30.03F
GARRISON         N/A     63  46  54 S9        30.08F
HETTINGER ARPT SUNNY     62  43  49 SE9       30.06F
$$

NDZ004>008-012>016-024-026-027-054-221700-
NORTHEAST NORTH DAKOTA

CITY           SKY/WX    TMP DP  RH WIND       PRES   REMARKS
GRAND FORKS    SUNNY     69  51  52 SW7       30.13S
GRND FRKS AFB  SUNNY     70  50  49 SW9       30.13F
DEVILS LAKE    SUNNY     64  46  52 SW9       30.11S
$$

NDZ022-023-025-028>030-036>039-047>053-221700-
SOUTHEAST NORTH DAKOTA

CITY           SKY/WX    TMP DP  RH WIND       PRES   REMARKS
FARGO          SUNNY     63  50  62 S10       30.17F
JAMESTOWN      SUNNY     65  51  60 S7        30.14F
$$




USA.gov is the U.S. government's official web portal to all federal, state and local government web resources and services.